Location: Ch�tillon
(48.8024°N, 2.2935°E)
Time: 14:00:36
(UTC+00:00)

DIWATA 2B (PO-101) - Pass Details

Date: 29 June 2022
Orbit: 583 x 599 km, 98.0° (Epoch: 19 August)

Event Time Altitude Azimuth Distance (km) Brightness Sun altitude
Exits shadow 23:53:29 - 108° (ESE) 2,894 ? -18.0°
Rises 23:53:39 0° 107° (ESE) 2,842 ? -18.0°
Reaches altitude 10° 23:57:27 10° 71° (ENE) 1,947 ? -18.0°
Maximum altitude 23:58:33 11° 56° (NE) 1,889 ? -18.0°
Drops below altitude 10° 23:59:38 10° 41° (NE) 1,947 ? -18.0°
Sets 00:03:29 0° 5° (N) 2,860 ? -18.0°
